map of MEK home
MEK - Airport
Location
City:  Meknes, Meknčs, Morocco
Name:Bassatine AB
Old (Alt.):Second Royal Air Force Base
ICAO:GMFM
IATA:MEK

Details
Type:Airport (Aerodrome, Airfield)
Use:Military
Latitude:33°52'45"N (33.879067)
Longitude:5°30'54"W (-5.515124)
Datum:WGS 1984
Elevation:1890 ft (576 m)
Variation:1.22°W (WMM2015 magnetic declination)
0.11° annual change
Runways:2
Longest:9252 × 164 ft (2820 × 50 m), paved

Time
Time Zone:UTC+0 (DST+1)
Local Time:

Weather
METAR:GMFM 180400Z 00000KT CAVOK 23/14 Q1017 NOSIG
TAF:GMFM 172300Z 1800/1906 24005KT CAVOK
BECMG 1806/1810 8000 SCT100
BECMG 1814/1818 32010KT FEW023
BECMG 1820/1824 VRB02KT CAVOK

Related Locations
Nearby:
Farthest:KKE: 12330 mi / 19844 km
Kerikeri/Bay of Islands, NTL, NZ

Find:

   beyond  
but within

Other Information
Maps:
NOTAMs:
Links:
Sources:

  
flag of Morocco   

Sectional Chart

Flight Planning
at skyvector.com

Satellite Image

Google Maps Satellite view

 

Copyright © 2004-2017 Karl L. Swartz. All rights reserved.
The Great Circle Mapper name and logo are trademarks of the Great Circle Mapper.
All other trademarks mentioned herein belong to their respective owners.
Please see credits for attibutions and further copyright information.

  Follow gcmap on Facebook Follow gcmap on Twitter Follow gcmap on Google+ GCmap on LinkedIn

hCard Microformat

Geo Microformat